Regional Weather Roundup
Issued by NWS

Home | Current Version | Previous Version | Text Only | Print | Product List | Glossary On
Versions: 1 2 3 4 5 6 7 8 9 10 11 12 13 14 15 16 17 18 19 20 21 22 23 24 25 26 27 28 29 30 31 32 33 34 35 36 37 38 39 40 41 42 43 44 45 46 47 48 49 50
000
ASUS45 KREV 241510
RWRNV
NEVADA REGIONAL WEATHER ROUNDUP
NATIONAL WEATHER SERVICE RENO NV
800 AM PDT THU MAY 24 2018

NOTE: "FAIR" INDICATES FEW OR NO CLOUDS BELOW 12,000 FEET WITH NO
SIGNIFICANT WEATHER AND/OR OBSTRUCTIONS TO VISIBILITY.

NVZ001-003-004-241600-
WESTERN NEVADA

CITY           SKY/WX    TMP DP  RH WIND       PRES   REMARKS
RENO           MOSUNNY   58  44  60 VRB3      30.09R
CARSON CITY    CLOUDY    55  46  71 CALM      30.11R
MINDEN         CLOUDY    52  46  82 CALM      30.11S
SLIDE MTN        N/A     39  39 100 SE15        N/A
FALLON         MOSUNNY   62  53  72 CALM      30.06R
LOVELOCK       SUNNY     63  50  62 VRB3      30.06R
$$

NVZ002-CAZ072-073-241600-
NORTHERN AND CENTRAL SIERRA

CITY           SKY/WX    TMP DP  RH WIND       PRES   REMARKS
S. LAKE TAHOE  SUNNY     46  43  89 S5        30.14R
TRUCKEE        FOG       39  39 100 CALM      30.15S VSB 1/4
SQUAW VLY 8000 NOT AVBL
BLUE CANYON    SUNNY     57  45  64 SE5       30.10R
MAMMOTH LAKES  FAIR      50  40  70 SE3       30.18S
BRIDGEPORT     FAIR      44  38  79 CALM      30.14S
$$

NVZ030-031-036-241600-
NORTHERN NEVADA

CITY           SKY/WX    TMP DP  RH WIND       PRES   REMARKS
ELKO           PTSUNNY   57  46  66 VRB3      30.13S
WINNEMUCCA     SUNNY     59  51  75 E3        30.09R
WENDOVER       SUNNY     63  48  58 SE3       30.11R
$$

NVZ035-037-241600-
CENTRAL NEVADA

CITY           SKY/WX    TMP DP  RH WIND       PRES   REMARKS
ELY            SUNNY     57  37  47 SE6       30.18S
EUREKA           N/A     56  46  69 N3        30.15R
$$

NVZ013-014-241600-
SOUTH CENTRAL NEVADA

CITY           SKY/WX    TMP DP  RH WIND       PRES   REMARKS
TONOPAH        SUNNY     62  35  36 NE3       30.13R
$$

NVZ017-020-022-241600-
SOUTHERN NEVADA

CITY           SKY/WX    TMP DP  RH WIND       PRES   REMARKS
LAS VEGAS      SUNNY     77  37  23 N3        30.00R
N. LAS VEGAS   SUNNY     76  32  20 E7        29.99R
NELLIS AFB     SUNNY     78  35  21 CALM      29.98R
HENDERSON      SUNNY     74  36  25 NE3       30.03R
MERCURY        SUNNY     74  34  23 N6        30.02S
$$



USA.gov is the U.S. government's official web portal to all federal, state and local government web resources and services.